NACHOS-1 (52917 NORAD) Tracking and Keplerian Element Data

This shows tracking and keplerian element data for the satellite.

Feedback or suggestion? Click here.




ElementValue
Catalog52917
NameNACHOS-1
Epoch Orbit1406
Epoch Day270.03189415
Epoch Year2022
RAAN187.3564
Inclination51.642
Eccentricity0.0003373
Argument of Perigee273.7244
Mean Anonmoly86.3364
Mean Motion15.60649095
Decay Rate0.00051484
L11 52917U 22015D 22270.03189415 .00051484 00000+0 61141-3 0 9995
L22 52917 51.6420 187.3564 0003373 273.7244 86.3364 15.60649095 14069

Live tracking and technical data element details for NACHOS-1 (NORAD 52917). NACHOS-1 can be tracked NOW for your location showing map with azimuth and elevation plus other details from your city location.

Track the satellite on the map from your city or location and see movement details for azimuth, elevation, latitude, longitude, range, height, and movement on the map or in text.







IsCatalogInMostPopularTable: catalog: 52917, numindb: 6
Update: records affected: 1



GetName: 52917 NACHOS-1

Hit Count: updated at: Thu, 06 Oct 2022 03:39:28 GMT